www.pogodaiklimat.ru

Погода и климат >> Архив погоды >> Китай >> Гуанси-Чжуанский автономный район >> Юйлинь


ПОГОДА в Юйлине

  • Прогноз погоды в Юйлине
  • Монитор погоды в Юйлине

АРХИВ ПОГОДЫ в Юйлине

Время (UTC), дата Ветер
(напр.,м/с)
 
Видим.   Явления Облачность Т
(С)
Тd
(С)
f
(%)
Тe
(С)
Тes
(С)
Комфортность P
(гПа)
Po
(гПа)
Тmin
(С)
Tmax
(С)
R
(мм)
R24
(мм)
S
(см)
06 17.02 З 2 30 км 10/10
[]
-0.4 -24.7 14 -3 -3 1028.6 888.9 -11.7
09 17.02 С 2 30 км 10/10
[]
+0.3 -16.5 27 -2 -2 1027.3 900.1
12 17.02 С 2 30 км 9/9
[]
-1.6 -12.5 43 -5 -5 1027.5 887.2
15 17.02 С 1 30 км н/о -1.9 -12.3 45 -3 -3 1026.3 898.2
18 17.02 С 1 30 км ?/? -2.6 -12.1 48 -4 -4 1023.3 885.9 +1.0
21 17.02 В 2 30 км н/о -3.2 -11.7 52 -7 -7 1021.3 893.3
00 18.02 ЮВ 3 7000 м слаб. снег 10/10
[]
-5.2 -8.1 80 -11 -11 1022.3 884.2 0.0
03 18.02 ЮВ 2 22 км {снег} 10/10
[]
-3.6 -6.7 79 -8 -8 1022.2 893.9
06 18.02 Ю 4 24 км в посл. час снег 9/9 1500 м
[]
-1.4 -6.3 69 -7 -6 1019.4 882.3 -5.3 0.0
09 18.02 Ю 2 11 км слаб. снег 10/10
[]
-2.3 -4.8 83 -6 -6 1018.5 891.2
12 18.02 Ю 1 н/о слаб. снег 10/10
[]
-2.8 -4.5 88 -5 -5 1020.5 882.3 0.2
15 18.02 З 3 22 км н/о -3.9 -6.7 81 -9 -9 1021.1 892.8
18 18.02 С 3 20 км ?/? -8.2 -10.4 84 -14 -14 1022.5 883.7 -1.2 0.3
21 18.02 З 1 15 км н/о -12.1 -14.1 85 -14 -14 1024.0 891.6
00 19.02 С 1 500 м туман 10/10
[]
-12.8 -14.8 85 -15 -15 1026.0 885.3 0.3
03 19.02 ЮВ 2 9000 м {туман} 4/4
[]
-7.9 -10.0 85 -12 -8 1026.5 895.7
06 19.02 СЗ 1 30 км {туман} ясно -0.2 -16.5 28 -1 +9 1024.4 885.6 -13.6
09 19.02 В 1 30 км ясно +1.6 -20.8 17 +1 +2 1024.8 898.4
12 19.02 В 1 30 км ясно -1.1 -19.1 24 -2 -2 1027.7 887.1
15 19.02 В 2 30 км н/о -4.3 -12.4 53 -8 -8 1028.8 899.3
18 19.02 Ю 1 30 км ?/? -6.4 -12.5 62 -8 -8 1028.4 889.5 +2.1
21 19.02 СВ 2 30 км н/о -6.6 -13.7 57 -11 -11 1027.5 897.2
00 20.02 СВ 1 30 км 9/9
[]
-11.0 -15.6 69 -13 -13 1030.7 890.2
03 20.02 Ю 2 30 км 9/9
[]
-1.4 -13.3 40 -4 -4 1031.2 902.7
06 20.02 В 2 30 км 9/9
[]
+6.1 -17.9 16 +5 +6 1027.4 890.1 -11.5
09 20.02 В 2 30 км 3/3
[]
+7.5 -26.2 7 +7 +7 1027.0 902.9
12 20.02 В 2 30 км 3/3
[]
+1.7 -20.8 17 -0 -0 1031.8 891.8
15 20.02 В 2 30 км н/о -0.2 -23.0 16 -2 -2 1031.1 903.2
18 20.02 В 1 30 км ?/? -1.2 -21.3 20 -2 -2 1029.1 892.8 +8.1
21 20.02 В 1 30 км н/о -4.9 -19.8 30 -6 -6 1028.4 898.7
00 21.02 С 1 30 км 5/5
[]
-7.8 -15.7 53 -10 -9 1031.3 892.1
03 21.02 Ю 2 30 км 8/8
[]
+1.7 -16.7 24 -0 +1 1029.6 902.7
06 21.02 Ю 4 30 км 9/9
[]
+7.0 -18.7 14 +5 +5 1025.8 890.1 -9.0
09 21.02 ЮВ 2 30 км 10/10
[]
+6.8 -21.7 11 +6 +6 1025.1 900.9
12 21.02 ЮВ 2 30 км 8/8
[]
+4.2 -19.4 16 +3 +3 1027.1 889.1
15 21.02 В 2 30 км н/о +2.8 -17.4 21 +1 +1 1025.1 899.2
18 21.02 ЮВ 2 30 км ?/? +0.8 -16.1 27 -2 -2 1023.4 888.5 +7.8
21 21.02 СЗ 1 30 км н/о -1.6 -14.7 36 -3 -3 1024.1 896.4
00 22.02 С 2 24 км ясно -4.4 -13.3 50 -8 -7 1026.7 889.5
03 22.02 ЮЗ 2 22 км ясно +2.9 -14.3 27 +1 +9 опасность
простуды
1026.2 900.2
06 22.02 ЮЗ 3 30 км ясно +9.1 -20.9 10 +8 +15 1023.3 888.9 -4.9
09 22.02 З 1 30 км ясно +10.7 -18.6 11 +11 +13 1023.3 900.9
12 22.02 ЮЗ 2 30 км ясно +5.5 -16.3 19 +4 +4 1027.0 890.1
15 22.02 В 1 30 км н/о +2.7 -16.4 23 +2 +2 1026.6 900.5
18 22.02 З 1 30 км ?/? -0.6 -14.9 33 -2 -2 1025.8 890.7 +10.8
21 22.02 СЗ 1 30 км н/о -3.2 -13.2 46 -5 -5 1025.1 896.6
00 23.02 С 1 23 км ясно -5.4 -13.2 54 -7 -7 1028.1 890.8
03 23.02 Ю 3 27 км ясно +3.9 -14.8 24 +1 +8 1026.7 901.1
06 23.02 Ю 3 30 км 3/3
[]
+10.7 -20.9 9 +10 +15 1022.8 888.5 -5.4
09 23.02 Ю 2 30 км 9/9
[]
+10.5 -21.1 9 +10 +10 1022.3 899.9
12 23.02 В 2 30 км 9/9
[]
+6.3 -17.7 16 +5 +5 1025.2 888.5
15 23.02 В 3 30 км н/о +4.9 -16.8 19 +3 +3 1023.4 898.6
18 23.02 ЮВ 2 30 км ?/? +2.8 -16.8 22 +1 +1 1021.7 888.3 +11.5
21 23.02 В 2 30 км ?/? +0.5 -16.8 26 -2 -2 1021.7 895.2
00 24.02 Ю 1 30 км 9/9
[]
-1.0 -16.4 30 -2 -2 1024.1 888.5
03 24.02 Ю 2 23 км 9/9
[]
+4.9 -16.2 20 +3 +4 1022.9 898.2

 

Местоположение метеостанции Юйлинь (Гуанси-Чжуанский автономный район, Китай): широта 38.23 долгота 109.70 высота над уровнем моря 1058 м.

В архиве по умолчанию представлена погода в Юйлине за последнюю неделю. Архивные данные за месяц целиком и за предыдущие месяцы, начиная с января 2011 года, Вы можете получить, выбрав интересующий диапазон дат из раскрывающегося списка и нажав кнопку "Ввод!".


*Определитесь, кто Вы:
робот инопланетянин человек

Внимание! Время в таблицах - всемирное. Для получения местного времени необходимо прибавить поправку, которая равна 8 ч.

Смотрите также архив погоды в соседних городах и на ближайших метеорологических станциях:

Погода в Лиши (Шаньси, Китай) (147 км)
Погода в Отог-Ци (Внутренняя Монголия, Китай) (178 км)
Погода в Хэцюе (Шаньси, Китай) (179 км)
Погода в Дуншэне (Внутренняя Монголия, Китай) (180 км)
Погода в Яньане (Шэньси, Китай) (182 км)
Погода в Яньчи (Нинся-Хуэйский автономный район, Китай) (209 км)
Погода в Цзесю (Шаньси, Китай) (236 км)
Погода в Тайюанье (Шаньси, Китай) (255 км)
Погода в Юаньпине (Шаньси, Китай) (267 км)
Погода в Иньчуане (Нинся-Хуэйский автономный район, Китай) (306 км)

Пояснения к столбцам:

Ветер - указаны скорость ветра в м/с - средняя за 10 мин, порывы в срок и между сроками (в фигурных скобках) и направление, откуда дует ветер: С - северный, СВ - северо-восточный, В - восточный, ЮВ - юго-восточный, Ю - южный, ЮЗ - юго-западный, З - западный, СЗ - северо-западный.
Видимость - горизонтальная дальность видимости в метрах или километрах. При видимости от 1 до 10 км при отсутствии осадков обычно наблюдается дымка, при ухудшении видимости до 1 км и менее - туман. В сухую погоду видимость может ухудшаться дымом, пылью или мглою.
Явления - указаны атмосферные явления, наблюдавшиеся в срок или в последний час перед сроком; фигурными скобками обозначены явления, наблюдавшиеся между сроками (за 1-3 часа до срока); квадратными скобками обозначены град или гололедные отложения с указанием их диаметра в мм.
Облачность - указаны через наклонную черту общая и нижняя облачность в баллах и высота нижней границы облаков в метрах; квадратными скобками обозначены формы облаков: Ci - перистые, Cs - перисто-слоистые, Cc - перисто-кучевые, Ac - высококучевые, As - высокослоистые, Sc - слоисто-кучевые, Ns - слоисто-дождевые, Cu - кучевые, Cb - кучево-дождевые. Подробнее классификацию облаков см. в Атласе облаков (PDF).
T - Температура воздуха - температура, измеренная на высоте 2 м над землей.
Td - Температура точки росы - температура, при понижении до которой содержащийся в воздухе водяной пар достигнет насыщения.
f - Относительная влажность воздуха - влажноcть воздуха, измеренная на высоте 2 м над землей.
Te - Эффективная температура - температура, которую ощущает одетый по сезону человек в тени. Характеристика душности погоды. При расчете учитывается влияние влажности воздуха и скорости ветра на теплоощущения человека.
Tes - Эффективная температура на солнце - температура, которую ощущает человек, с поправкой на солнечный нагрев. Характеристика знойности погоды. Зависит от высоты солнца над горизонтом, облачности и скорости ветра. Ночью, в пасмурную погоду, а также при ветре 12 м/с и более поправка равна нулю.
P - Атмосферное давление - приведенное к уровню моря атмосферное давление.
Po - Атмосферное давление - измеренное на уровне метеостанции атмосферное давление.
Tmin - Минимальная температура - минимум температуры воздуха на высоте 2 м над землей.
Tmax - Максимальная температура - максимум температуры воздуха на высоте 2 м над землей.
R - Количество осадков - Количество выпавших осадков за период времени, мм. При наведении курсора мыши на число - период времени, за который выпало указанное количество осадков.
R24 - Количество осадков - Количество выпавших осадков за 24 часа, мм.
S - Снежный покров - Высота снежного покрова, см. При наведении курсора мыши на число - состояние снежного покрова и степень покрытия местности в баллах.